Hofstra Student Garden NY US WEATHERSTEM current weather conditions

sailwx.info

Wind from 034 at 5 knots gusting 10

Air temperature 4.4° C
Dewpoint 2.5° C

Last reported at 2020-Jan-25 10:00 UTC.
Time now 2020-Jan-25 10:39 UTC

Location: N 40°43' W 073°36'.
View on Google Maps.

See reports from other nearby stations

  
Tides and Currents Weather Stations Pressure Air Temp Water Temp Dewpoint Dewpoint Depression Visibility Wind Speed Wind Dir Waves Ship Positions
date/time (UTC)wind fromknots sea level pressurealtimeterstation pressurevisibilityair tempwater tempwave heightnotes
2020-Jan-25 10:00 034 5 gusting 10 4.4
2020-Jan-25 09:50 076 2 gusting 11 4.4
2020-Jan-25 09:40 019 3 gusting 10 4.4
2020-Jan-25 09:30 060 7 gusting 12 4.4
2020-Jan-25 09:20 043 2 gusting 10 4.4
2020-Jan-25 09:10 054 2 gusting 9 4.4
2020-Jan-25 09:00 104 2 gusting 13 4.4
2020-Jan-25 08:50 078 1 gusting 9 4.3
2020-Jan-25 08:40 090 3 gusting 8 4.3
2020-Jan-25 08:20 085 1 gusting 9 4.3
2020-Jan-25 08:10 076 1 gusting 8 4.2
2020-Jan-25 08:00 046 5 gusting 13 4.2
2020-Jan-25 07:50 070 5 gusting 8 4.2
2020-Jan-25 07:40 050 4 gusting 6 4.1
2020-Jan-25 07:30 041 4 gusting 8 3.9
2020-Jan-25 07:20 052 1 gusting 9 3.9
2020-Jan-25 07:10 073 3 gusting 8 3.8
2020-Jan-25 07:00 010 1 gusting 6 3.7
2020-Jan-25 06:50 057 0 gusting 6 3.6
2020-Jan-25 06:40 051 3 gusting 5 3.5
2020-Jan-25 06:30 050 1 gusting 7 3.4
2020-Jan-25 06:20 042 1 gusting 9 3.4
2020-Jan-25 06:00 098 3 gusting 10 3.3
2020-Jan-25 05:50 067 4 gusting 6 3.4
2020-Jan-25 05:40 049 2 gusting 5 3.5
2020-Jan-25 05:30 067 1 gusting 5 3.6
2020-Jan-25 05:20 034 1 gusting 6 3.7
2020-Jan-25 05:10 042 2 gusting 6 3.7
2020-Jan-25 05:00 018 3 gusting 6 3.7
2020-Jan-25 04:50 052 1 gusting 5 3.8
2020-Jan-25 04:40 046 2 gusting 5 3.9
2020-Jan-25 04:30 049 2 gusting 6 4.0
2020-Jan-25 04:20 031 1 gusting 5 4.2
2020-Jan-25 04:10 045 4 gusting 5 4.4
2020-Jan-25 04:00 066 1 gusting 7 4.6
2020-Jan-25 03:50 076 2 gusting 8 4.7
2020-Jan-25 03:40 096 1 gusting 7 4.7
2020-Jan-25 03:30 119 4 gusting 11 4.8
2020-Jan-25 03:20 107 0 gusting 9 4.8
2020-Jan-25 03:10 085 1 gusting 9 4.8
2020-Jan-25 03:00 085 0 gusting 7 4.8
2020-Jan-25 02:50 049 2 gusting 6 4.8
2020-Jan-25 02:40 096 0 gusting 7 4.8
2020-Jan-25 02:30 107 7 gusting 7 4.8
2020-Jan-25 02:20 113 6 gusting 7 4.9
2020-Jan-25 02:10 109 5 gusting 8 4.9
2020-Jan-25 02:00 094 2 gusting 7 4.9
2020-Jan-25 01:50 094 2 gusting 7 5.1
2020-Jan-25 01:40 097 1 gusting 7 5.1
2020-Jan-25 01:30 094 0 gusting 6 5.1
2020-Jan-25 01:20 101 5 gusting 6 5.2
2020-Jan-25 01:10 092 1 gusting 8 5.1
2020-Jan-25 01:00 112 2 gusting 6 5.2
2020-Jan-25 00:50 111 2 gusting 6 5.2
2020-Jan-25 00:40 096 1 gusting 6 5.3
2020-Jan-25 00:30 093 2 gusting 7 5.2
2020-Jan-25 00:20 063 1 gusting 6 5.3
2020-Jan-25 00:10 121 2 gusting 5 5.3
2020-Jan-25 00:00 099 1 gusting 5 5.4
2020-Jan-24 23:50 107 0 gusting 6 5.6
2020-Jan-24 23:40 107 5 gusting 5 5.8
2020-Jan-24 23:30 105 1 gusting 2 6.0
2020-Jan-24 23:20 092 0 gusting 6 6.2
2020-Jan-24 23:10 106 0 gusting 5 6.4
2020-Jan-24 23:00 095 1 gusting 2 6.6
2020-Jan-24 22:50 099 0 gusting 5 6.8
2020-Jan-24 22:40 136 1 gusting 5 7.0
2020-Jan-24 22:30 161 5 gusting 6 7.2
2020-Jan-24 22:20 112 0 gusting 5 7.4
2020-Jan-24 22:10 116 0 gusting 4 7.6
2020-Jan-24 22:00 109 0 gusting 6 7.8
2020-Jan-24 21:50 117 1 gusting 5 8.1
2020-Jan-24 21:40 088 2 gusting 8 8.4
2020-Jan-24 21:30 092 3 gusting 8 8.9
2020-Jan-24 21:20 113 1 gusting 6 9.4
2020-Jan-24 21:10 138 1 gusting 6 9.8
2020-Jan-24 21:00 112 5 gusting 6 10.2
2020-Jan-24 20:50 108 2 gusting 9 10.6
2020-Jan-24 20:40 093 1 gusting 6 10.9
2020-Jan-24 20:30 119 3 gusting 6 11.2
2020-Jan-24 20:20 112 1 gusting 5 11.2
2020-Jan-24 20:10 124 1 gusting 6 11.0
2020-Jan-24 20:00 101 1 gusting 6 11.1
2020-Jan-24 19:50 221 6 gusting 6 11.2
2020-Jan-24 19:40 200 1 gusting 6 11.3
2020-Jan-24 19:30 184 0 gusting 6 11.8
2020-Jan-24 19:20 163 3 gusting 7 12.3
2020-Jan-24 19:00 112 2 gusting 6 12.6
2020-Jan-24 18:50 170 1 gusting 6 12.7
2020-Jan-24 18:40 114 5 gusting 5 12.9
2020-Jan-24 18:30 119 4 gusting 6 12.8
2020-Jan-24 18:20 124 2 gusting 6 12.8
2020-Jan-24 18:00 117 0 gusting 6 12.6
2020-Jan-24 17:50 184 1 gusting 6 12.3
2020-Jan-24 17:40 136 3 gusting 6 12.1
2020-Jan-24 17:30 116 1 gusting 6 11.9
2020-Jan-24 17:20 062 3 gusting 7 11.6
2020-Jan-24 17:00 052 2 gusting 7 10.9
2020-Jan-24 16:50 105 2 gusting 6 10.8
2020-Jan-24 16:40 028 1 gusting 5 10.5
2020-Jan-24 16:30 039 2 gusting 3 10.4
2020-Jan-24 16:20 053 1 gusting 4 10.2
2020-Jan-24 16:00 110 1 gusting 6 9.7
2020-Jan-24 15:50 010 0 gusting 3 9.3
2020-Jan-24 15:40 023 1 gusting 5 8.8
2020-Jan-24 15:30 044 0 gusting 5 8.4
2020-Jan-24 15:20 053 1 gusting 6 8.0
2020-Jan-24 15:00 105 5 gusting 5 7.2
2020-Jan-24 14:50 049 1 gusting 3 6.5
2020-Jan-24 14:40 058 1 gusting 4 6.0
2020-Jan-24 14:30 037 0 gusting 4 5.3
2020-Jan-24 14:20 027 2 gusting 4 4.7
2020-Jan-24 14:00 037 1 gusting 3 3.1
2020-Jan-24 13:50 083 1 gusting 2 2.2
2020-Jan-24 13:40 040 0 gusting 2 1.6
2020-Jan-24 13:30 040 1 gusting 2 0.9
2020-Jan-24 13:20 0.3
2020-Jan-24 13:00 -0.5
2020-Jan-24 12:50 -0.6
2020-Jan-24 12:40 -0.7
2020-Jan-24 12:30 -0.7
2020-Jan-24 12:20 -0.7
2020-Jan-24 12:00 -0.6
2020-Jan-24 11:50 -0.5
2020-Jan-24 11:40 -0.4
2020-Jan-24 11:30 -0.4
2020-Jan-24 11:20 -0.3
2020-Jan-24 11:00 -0.1
2020-Jan-24 10:50 -0.0
2020-Jan-24 10:30 0.2
2020-Jan-24 10:20 0.3
2020-Jan-24 10:00 0.5
2020-Jan-24 09:50 0.7
2020-Jan-24 09:40 0.8
2020-Jan-24 09:30 0.9
2020-Jan-24 09:20 1.1
2020-Jan-24 09:00 1.3
2020-Jan-24 08:50 1.5
2020-Jan-24 08:40 1.6
2020-Jan-24 08:30 1.7
2020-Jan-24 08:20 1.8
2020-Jan-24 08:00 2.0
2020-Jan-24 07:50 2.1
2020-Jan-24 07:40 2.3
2020-Jan-24 07:30 2.4
2020-Jan-24 07:00 2.6
2020-Jan-24 06:50 2.7
2020-Jan-24 06:40 2.8
2020-Jan-24 06:30 2.8
2020-Jan-24 06:20 2.8
2020-Jan-24 06:00 2.9
2020-Jan-24 05:50 2.9
2020-Jan-24 05:40 3.0
2020-Jan-24 05:30 3.0
2020-Jan-24 05:20 3.0
2020-Jan-24 05:00 3.1
2020-Jan-24 04:50 3.3
2020-Jan-24 04:40 3.4
2020-Jan-24 04:30 3.5
2020-Jan-24 04:20 3.6
2020-Jan-24 04:00 3.7
2020-Jan-24 03:50 132 0 gusting 1 3.7
2020-Jan-24 03:40 3.7
2020-Jan-24 03:30 3.8
2020-Jan-24 03:20 3.8
2020-Jan-24 03:00 3.8
2020-Jan-24 02:50 3.9
2020-Jan-24 02:40 3.9
2020-Jan-24 02:20 154 0 gusting 2 4.1
2020-Jan-24 02:00 260 0 gusting 1 4.1
2020-Jan-24 01:50 243 0 gusting 1 4.1
2020-Jan-24 01:40 4.2
2020-Jan-24 01:30 4.2
2020-Jan-24 01:20 4.3
2020-Jan-24 01:00 4.5
2020-Jan-24 00:50 194 0 gusting 1 4.6
2020-Jan-24 00:40 4.7
2020-Jan-24 00:30 4.8
2020-Jan-24 00:20 136 0 gusting 2 4.8
2020-Jan-24 00:00 4.8
2020-Jan-23 23:50 4.9
2020-Jan-23 23:40 195 1 gusting 1 5.1
2020-Jan-23 23:30 5.1
2020-Jan-23 23:20 5.3
2020-Jan-23 23:00 163 0 gusting 1 5.6
2020-Jan-23 22:50 163 0 gusting 1 5.8
2020-Jan-23 22:40 161 0 gusting 1 6.0
2020-Jan-23 22:30 195 0 gusting 3 6.3
2020-Jan-23 22:20 6.6
2020-Jan-23 22:00 192 1 gusting 2 7.2
2020-Jan-23 21:50 148 0 gusting 2 7.4
2020-Jan-23 21:40 167 0 gusting 1 7.6
2020-Jan-23 21:30 160 0 gusting 2 7.7
2020-Jan-23 21:20 211 0 gusting 1 7.9
2020-Jan-23 21:00 8.2
2020-Jan-23 20:50 8.3
2020-Jan-23 20:40 8.3
2020-Jan-23 20:30 8.4
2020-Jan-23 20:20 189 1 gusting 2 8.5
2020-Jan-23 20:00 179 0 gusting 1 8.7
2020-Jan-23 19:50 8.8
2020-Jan-23 19:40 202 2 gusting 3 8.9
2020-Jan-23 19:30 242 2 gusting 5 9.1
2020-Jan-23 19:20 210 0 gusting 4 9.3
2020-Jan-23 19:00 315 1 gusting 4 8.6
2020-Jan-23 18:50 261 1 gusting 6 8.4
2020-Jan-23 18:40 232 2 gusting 6 8.3
2020-Jan-23 18:30 038 0 gusting 2 8.2
2020-Jan-23 18:20 294 0 gusting 2 8.1
2020-Jan-23 18:00 7.6
2020-Jan-23 17:50 034 0 gusting 4 7.4
2020-Jan-23 17:40 239 2 gusting 5 7.2
2020-Jan-23 17:30 121 2 gusting 6 6.7
2020-Jan-23 17:20 201 1 gusting 6 6.4
2020-Jan-23 17:00 248 4 gusting 7 6.3
2020-Jan-23 16:50 227 4 gusting 6 6.2
2020-Jan-23 16:40 230 4 gusting 6 6.2
2020-Jan-23 16:30 273 1 gusting 7 6.1
2020-Jan-23 16:20 248 4 gusting 7 6.1
2020-Jan-23 16:00 244 3 gusting 6 6.2
2020-Jan-23 15:50 288 0 gusting 8 5.8
2020-Jan-23 15:40 262 6 gusting 8 5.7
2020-Jan-23 15:30 286 0 gusting 6 5.2
2020-Jan-23 15:20 257 6 gusting 8 4.9
2020-Jan-23 15:00 238 1 gusting 4 4.3
2020-Jan-23 14:50 3.8
2020-Jan-23 14:40 252 3 gusting 5 3.5
2020-Jan-23 14:30 234 2 gusting 4 3.3
2020-Jan-23 14:20 248 3 gusting 5 2.8
2020-Jan-23 14:00 248 3 gusting 6 1.4
2020-Jan-23 13:50 227 2 gusting 4 0.8
2020-Jan-23 13:40 234 2 gusting 4 0.3
2020-Jan-23 13:30 202 0 gusting 2 -0.2
2020-Jan-23 13:20 165 0 gusting 2 -0.7
2020-Jan-23 13:00 125 0 gusting 5 -1.3
2020-Jan-23 12:50 113 0 gusting 2 -1.6
2020-Jan-23 12:40 -1.7
2020-Jan-23 12:30 100 1 gusting 2 -1.8
2020-Jan-23 12:20 -1.8
2020-Jan-23 12:00 -2.0
2020-Jan-23 11:50 -2.1
2020-Jan-23 11:40 -2.2
2020-Jan-23 11:30 -2.3
2020-Jan-23 11:20 -2.4
2020-Jan-23 11:00 -2.7
2020-Jan-23 10:50 -2.7
2020-Jan-23 10:40 -2.8
2020-Jan-23 10:30 311 0 gusting 0 -2.8
2020-Jan-23 10:20 -2.8
2020-Jan-23 10:00 -2.7